Starlink 30071

operational
NORAD ID: 56708 Int'l Des: 2023-067 Owner: SPXS Country: US Constellation: starlink
LEOCIRCULAR

About Starlink 30071

Description loading...

Live Position

Loading 3D Globe...

Upcoming Passes

Altitude History

Altitude vs Time

uPlot chart will show altitude changes over time

Two-Line Element Set

1 56708U 23067W 25304.86238171 .00000370 00000-0 42433-4 0 9994
2 56708 42.9985 254.2465 0000838 257.4117 102.6632 15.02534834136284
Epoch: Oct 31, 2025 • Age: 4 hours

Current Status

Altitude 560.9 km
Velocity 7.58 km/s
Sub-Earth Point -11.99°S, 34.4°E
Launch Date May 19, 2023
Age 2.4 years
Type internet

Technical Details

Classification Payload
Mass 730.00 kg
Dry Mass 700.00 kg
Total Mass 730.00 kg
Length 0.30 m
Diameter 4.10 m
Span 29.00 m
Shape Box + pan
Manufacturer SPXS
Bus Type Starlink V2M
Phase Status In Orbit
Owner/State SPXS/US

Large Constellations

Loading constellations...